sat.trackr.live / text

‹ back to catalog

STARLINK-5010

NORAD 53930 · 2022-119AW

PAYLOAD ACTIVE UNKNOWN

§ Identity

Operator
Country
US
Launch date
2022-09-24
Launch site
AFETR
Launch vehicle
Mass (kg)
RCS (m²)

Purposes: comms

External: N2YO · Heavens-Above · Gunter

§ Orbital elements

Epoch: 2026-09-20T22:47:32.558496Z

Period
94.33 min
Inclination
53.1760°
Eccentricity
0.0001437
Mean motion
15.26517321 rev/d
Perigee alt
485.2 km
Apogee alt
487.2 km
Semi-major
6,864.4 km
B*
-5.6965e-6
RAAN
92.1696°
Arg perigee
103.8688°
Mean anomaly
256.2471°
Rev number
22,222

§ Raw data

STARLINK-50101 53930U 22119AW  26263.94968239 -.00000496  00000+0 -56965-5 0  99902 53930  53.1760  92.1696 0001437 103.8688 256.2471 15.26517321222226

JSON: /api/v1/satellites/53930 · /tle

For live sub-satellite position, see the globe view (requires WebGL).

§ Visibility from observer

Set your observer location to see the next 7 days of passes ≥ 10°. The values pass through the URL so the page stays shareable.

No JS? Fill the form by hand. The geolocation button needs JavaScript.